Regional Weather Roundup
Issued by NWS

Home | Current Version | Previous Version | Graphics & Text | Print | Product List | Glossary On
Versions: 1 2 3 4 5 6 7 8 9 10 11 12 13 14 15 16 17 18 19 20 21 22 23 24 25 26 27 28 29 30 31 32 33 34 35 36 37 38 39 40 41 42 43 44 45 46 47 48 49 50
000
ASUS43 KLOT 161103
RWRIL

ILLINOIS REGIONAL WEATHER ROUNDUP
NATIONAL WEATHER SERVICE CHICAGO/ROMEOVILLE IL
500 AM CST TUE JAN 16 2018

NOTE: "FAIR" INDICATES FEW OR NO CLOUDS BELOW 12,000 FEET WITH NO
SIGNIFICANT WEATHER AND/OR OBSTRUCTIONS TO VISIBILITY.

* THESE STATIONS ARE NOT UNDER NWS QUALITY CONTROL. THEY ALSO MAY NOT
  REPORT WEATHER SUCH AS PRECIPITATION OR FOG.

ILZ001-002-007-009-015-016-024-161200-
NORTHWEST ILLINOIS

CITY           SKY/WX    TMP DP  RH WIND       PRES   REMARKS
MOLINE         LGT SNOW   1  -5  75 W13       30.52S WCI -17
STERLING*      FLURRIES   2  -2  83 W14       30.47S WCI -16
SAVANNA*       LGT SNOW   8   3  80 W6        30.49R WCI  -3
$$

ILZ003-004-008-010-011-017-018-161200-
NORTH CENTRAL ILLINOIS

CITY           SKY/WX    TMP DP  RH WIND       PRES   REMARKS
ROCKFORD       FLURRIES  10   5  80 NW10      30.44R WCI  -4
FREEPORT*      FLURRIES  10   6  82 NW10      30.45S WCI  -4
ROCHELLE*      FLURRIES   6   2  84 W12       30.44S WCI -10
DE KALB*       CLOUDY     7   3  85 W17       30.39S WCI -12
PERU*          LGT SNOW   1  -4  78 W13       30.47S WCI -16
$$

ILZ005-006-012>014-019>023-161200-
NORTHEAST ILLINOIS

CITY           SKY/WX    TMP DP  RH WIND       PRES   REMARKS
CHICAGO-OHARE  FLURRIES  11   6  81 W12       30.36S WCI  -3
CHICAGO-MIDWAY LGT SNOW   7   3  84 W12       30.38R FOG     WCI  -8
AURORA         CLOUDY     7   3  84 W16       30.40S WCI -11
LANSING*       FLURRIES   4   0  86 W8        30.40S WCI -10
JOLIET*        LGT SNOW   5   1  82 W7        30.43R WCI  -7
WAUKEGAN       LGT SNOW  20  14  77 W6        30.35R WCI  12
DUPAGE AIRPORT LGT SNOW   8   5  87 W8        30.38R FOG     WCI  -4
KANKAKEE*      FLURRIES   0  -5  76 W17       30.45S WCI -20
WHEELING       CLOUDY    13   9  84 W7        30.38R WCI   3
MORRIS*        LGT SNOW   4  -1  80 W12       30.43R WCI -13
ROMEOVILLE*    LGT SNOW   4   1  86 W9        30.41R WCI -10
NORTHERLY ISL    N/A      8   4  83 W18         N/A  WCI -11
$$

LMZ740>746-161200-
SOUTHERN LAKE MICHIGAN

STATION/POSITION SKY/WX   TEMP    WIND        PRES    VSBY  WAVE
                          AIR SEA DIR/SP/G                  HT/PER
                          (F)     (DEG/KT/KT) (MB)    (MI)  (FT/S)
HARRISON CRIB              10     270/ 23/ 25   N/A
BURNHAM HARBOR              8     240/ 17/ 22   N/A
CALUMET HARBOR              5     220/  8/ 13 1027.7S
BURNS HARBOR                3     210/ 13/ 16 1029.1R
MICHIGAN CITY                     190/ 12/ 14   N/A
$$

ILZ025>027-034>036-040-047-049-050-058-095>099-161200-
WEST-CENTRAL ILLINOIS

CITY           SKY/WX    TMP DP  RH WIND       PRES   REMARKS
QUINCY         CLEAR     -4 -11  72 W14       30.59R WCI -24
GALESBURG*     FLURRIES  -2  -6  82 W13       30.53R WCI -20
MACOMB*        PTCLDY    -4 -10  76 W12       30.58R WCI -23
JACKSONVILLE*  MOCLDY    -2  -9  74 W9        30.58S WCI -18
PITTSFIELD*    PTCLDY    -2  -9  71 W8        30.60S WCI -17
$$

ILZ028>032-037-038-041>044-048-051>054-059>061-161200-
CENTRAL ILLINOIS

CITY           SKY/WX    TMP DP  RH WIND       PRES   REMARKS
PONTIAC        FLURRIES   0  -3  85 W18       30.47S WCI -21
BLOOMINGTON    FLURRIES  -4  -8  83 W14       30.48R WCI -24
DECATUR        FAIR      -3  -8  79 W13       30.54R WCI -22
PEORIA         MOCLDY    -2  -8  76 W8        30.53R WCI -17
LACON*         LGT SNOW   1  -5  76 W6        30.50R WCI -10
LINCOLN*       FAIR      -2  -8  76 W5        30.55S WCI -12
SPRINGFIELD    FAIR      -2  -9  72 W10       30.57R WCI -19
TAYLORVILLE    FAIR      -3  -9  75 W9        30.57S WCI -19
$$

ILZ033-039-045-046-055>057-062-063-161200-
EAST-CENTRAL ILLINOIS

CITY           SKY/WX    TMP DP  RH WIND       PRES   REMARKS
CHAMPAIGN      FAIR      -4 -10  75 W15       30.50S WCI -25
DANVILLE*      FAIR      -3  -9  75 W9        30.46S WCI -20
RANTOUL*       CLOUDY    -1  -6  80 W12       30.48F WCI -19
MATTOON        FAIR      -3  -9  75 W9        30.53R WCI -19
PARIS*         FAIR      -3  -8  79 W12       30.53S WCI -21
$$

ILZ079-100>102-161200-
SOUTHWEST ILLINOIS

CITY           SKY/WX    TMP DP  RH WIND       PRES   REMARKS
ALTON          CLEAR      0  -6  78 W10       30.62F WCI -17
BELLEVILLE     PTCLDY     2  -7  67 W8        30.62S WCI -12
CAHOKIA*       PTCLDY     2  -8  63 W8        30.65S WCI -12
SPARTA*        PTCLDY     2  -4  73 W12       30.64S WCI -14
$$

ILZ064>066-069>071-074>076-080>082-084>086-088>090-092>094-161200-
SOUTH-CENTRAL ILLINOIS

CITY           SKY/WX    TMP DP  RH WIND       PRES   REMARKS
CARBONDALE     FAIR       4  -5  66 NW7       30.64R WCI  -8
CAIRO*         FAIR       8  -1  66 N10       30.64S WCI  -6
EFFINGHAM*     FAIR      -1  -7  75 W9        30.59S WCI -16
MARION         FAIR       4  -5  68 W3        30.64R
MT. VERNON     FAIR       0  -5  79 W5        30.61R WCI -10
CENTRALIA*     CLEAR      2  -4  75 CALM      30.61R
SALEM*         FAIR       3  -5  69 W10       30.60S WCI -13
METROPOLIS*    FAIR      10  -1  63 N10       30.63R WCI  -4
$$

ILZ067-068-072-073-078-083-087-091-161200-
SOUTHEAST ILLINOIS

CITY           SKY/WX    TMP DP  RH WIND       PRES   REMARKS
LAWRENCEVILLE  FAIR       0  -7  72 W9        30.59R WCI -15
FLORA*         FAIR       2  -6  70 W8          N/A  WCI -12
FAIRFIELD*     FAIR       1  -5  75 CALM      30.60S
HARRISBURG*    FAIR       5  -2  72 NW6       30.64R WCI  -6
ROBINSON*      FAIR      -6 -10  80 W7        30.59S WCI -20
CARMI*         FAIR       2  -4  73 NW5       30.61R WCI  -7
$$

ABBREVIATIONS USED IN REMARKS
   TC - TEMPERATURE IN CELSIUS
  WCI - WIND CHILL INDEX
   HX - HEAT INDEX
  VSB - VISIBILITY
$$





USA.gov is the U.S. government's official web portal to all federal, state and local government web resources and services.